EW9931 Weather Reports


Display with metric or nautical units.
time (UTC)temp
F
wind
direction
speed
MPH
gust
MPH
rain 1hr
in
rain 24hr
in
rain mn
in
humidity
%
barometer
mb
20260901133044 54 216 3.0 0.0 0.00 0.00 0.00 24 1006.1
20260901131544 54 176 3.0 0.0 0.00 0.00 0.00 24 1005.9
20260901130043 54 150 1.0 0.0 0.00 0.00 0.00 17 1005.6
20260901124540 53 137 1.0 0.0 0.00 0.00 0.00 17 1005.5
20260901123039 53 124 1.0 0.0 0.00 0.00 0.00 16 1005.5
20260901121537 53 176 1.0 0.0 0.00 0.00 0.00 17 1005.4
20260901120035 53 145 2.0 0.0 0.00 0.00 0.00 17 1004.4
20260901114535 53 185 1.0 0.0 0.00 0.00 0.00 17 1004.5
20260901113036 54 130 2.0 0.0 0.00 0.00 0.00 17 1004.7
20260901111532 54 154 1.0 0.0 0.00 0.00 0.00 17 1004.6
20260901110029 54 202 1.0 0.0 0.00 0.00 0.00 17 1003.7
20260901104528 54 148 2.0 0.0 0.00 0.00 0.00 18 1003.8
20260901103026 54 150 1.0 0.0 0.00 0.00 0.00 21 1003.9
20260901101550 54 195 1.0 0.0 0.00 0.00 0.00 22 1003.9
20260901100027 54 181 0.0 0.0 0.00 0.00 0.00 23 1003.6
20260901094534 54 196 0.0 0.0 0.00 0.00 0.00 37 1003.5
20260901093016 55 188 0.0 0.0 0.00 0.00 0.00 37 1003.6
20260901091511 55 210 0.0 0.0 0.00 0.00 0.00 37 1003.6
20260901090008 55 144 1.0 0.0 0.00 0.00 0.00 37 1003.1
20260901084503 55 152 1.0 0.0 0.00 0.00 0.00 37 1003.2
20260901083058 55 229 2.0 0.0 0.00 0.00 0.00 37 1003.4
20260901081600 55 148 1.0 0.0 0.00 0.00 0.00 37 1003.6
20260901080141 55 196 0.0 0.0 0.00 0.00 0.00 37 1004.2
20260901074549 55 133 0.0 0.0 0.00 0.00 0.00 36 1004.2
20260901073051 55 145 0.0 0.0 0.00 0.00 0.00 36 1004.3
20260901071548 54 127 0.0 0.0 0.00 0.00 0.00 41 1004.4
20260901070053 55 143 0.0 0.0 0.00 0.00 0.00 44 1004.9
20260901064554 55 137 0.0 0.0 0.00 0.00 0.00 45 1005.0
20260901063056 55 213 0.0 0.0 0.00 0.00 0.00 44 1004.4
20260901061559 55 157 0.0 0.0 0.00 0.00 0.00 40 1004.5
20260901060045 56 136 0.0 0.0 0.00 0.00 0.00 39 1005.2
20260901054550 56 137 0.0 0.0 0.00 0.00 0.00 41 1005.2
20260901053044 56 189 0.0 0.0 0.00 0.00 0.00 38 1005.2
20260901051544 56 154 0.0 0.0 0.00 0.00 0.00 37 1005.3
20260901050043 56 154 0.0 0.0 0.00 0.00 0.00 35 1005.4
20260901044559 56 130 0.0 0.0 0.00 0.00 0.00 35 1005.5
20260901043043 55 134 0.0 0.0 0.00 0.00 0.00 38 1005.7
20260901041542 55 127 0.0 0.0 0.00 0.00 0.00 52 1005.2
20260901040054 55 145 0.0 0.0 0.00 0.00 0.00 62 1005.5
20260901034541 55 144 0.0 0.0 0.00 0.00 0.00 65 1005.1
20260901033040 56 152 0.0 0.0 0.00 0.00 0.00 67 1004.6
20260901031539 56 137 1.0 0.0 0.00 0.00 0.00 69 1004.5
20260901030039 56 126 1.0 0.0 0.00 0.00 0.00 70 1004.8
20260901024547 56 157 0.0 0.0 0.00 0.00 0.00 70 1004.5
20260901023038 57 124 1.0 0.0 0.00 0.00 0.00 66 1004.6
20260901021543 57 175 0.0 0.0 0.00 0.00 0.00 62 1004.1
20260901020038 58 134 1.0 0.0 0.00 0.00 0.00 62 1004.5
20260901014533 58 186 2.0 0.0 0.00 0.00 0.00 61 1004.7
20260901013034 59 223 2.0 0.0 0.00 0.00 0.00 59 1004.3
20260901011532 60 114 2.0 0.0 0.00 0.00 0.00 57 1003.7
20260901010030 61 196 3.0 0.0 0.00 0.00 0.00 54 1004.0
20260901004530 62 205 2.0 0.0 0.00 0.00 0.00 52 1003.5
20260901003033 63 90 2.0 0.0 0.00 0.00 0.00 49 1003.5
20260901001532 65 213 1.0 0.0 0.00 0.00 0.00 45 1003.3
20260901000027 65 212 2.0 0.0 0.00 0.00 0.00 44 1003.4
20260831234532 65 222 2.0 0.0 0.00 0.00 0.00 43 1002.9
20260831233026 66 210 2.0 0.0 0.00 0.00 0.00 40 1003.0
20260831231538 66 220 2.0 0.0 0.00 0.00 0.00 40 1002.9
20260831230029 68 157 1.0 0.0 0.00 0.00 0.00 36 1002.7
20260831224545 68 196 2.0 0.0 0.00 0.00 0.00 33 1003.5
20260831223023 68 205 2.0 0.0 0.00 0.00 0.00 32 1003.5
20260831221525 68 219 2.0 0.0 0.00 0.00 0.00 31 1003.6
20260831220022 67 209 2.0 0.0 0.00 0.00 0.00 32 1003.6
20260831214527 67 126 2.0 0.0 0.00 0.00 0.00 32 1003.9
20260831213022 67 208 3.0 0.0 0.00 0.00 0.00 29 1004.1
20260831211521 68 110 2.0 0.0 0.00 0.00 0.00 31 1004.0
20260831210020 69 216 2.0 0.0 0.00 0.00 0.00 31 1003.5
20260831204520 69 161 0.0 0.0 0.00 0.00 0.00 32 1003.7
20260831203031 68 222 3.0 0.0 0.00 0.00 0.00 35 1004.1
20260831201518 67 193 3.0 0.0 0.00 0.00 0.00 38 1003.9
20260831200018 68 206 1.0 0.0 0.00 0.00 0.00 39 1003.8
20260831194516 68 216 2.0 0.0 0.00 0.00 0.00 39 1004.2
20260831193016 67 229 2.0 0.0 0.00 0.00 0.00 42 1004.0
20260831191531 66 219 2.0 0.0 0.00 0.00 0.00 45 1004.5
20260831190004 66 208 1.0 0.0 0.00 0.00 0.00 45 1004.6
20260831184601 66 216 1.0 0.0 0.00 0.00 0.00 46 1004.4
20260831183057 64 130 1.0 0.0 0.00 0.00 0.00 50 1005.0
20260831181552 64 223 1.0 0.0 0.00 0.00 0.00 51 1004.9
20260831180049 64 196 1.0 0.0 0.00 0.00 0.00 52 1004.8
20260831174545 63 171 1.0 0.0 0.00 0.00 0.00 53 1004.8
20260831173044 63 223 1.0 0.0 0.00 0.00 0.00 52 1004.7
20260831171535 63 200 1.0 0.0 0.00 0.00 0.00 51 1004.6
20260831170031 63 119 2.0 0.0 0.00 0.00 0.00 49 1004.6
20260831164526 62 217 1.0 0.0 0.00 0.00 0.00 50 1004.4
20260831163021 62 152 1.0 0.0 0.00 0.00 0.00 50 1004.8
20260831161517 61 133 0.0 0.0 0.00 0.00 0.00 50 1004.8
20260831160022 61 182 1.0 0.0 0.00 0.00 0.00 51 1004.8
20260831154508 60 172 0.0 0.0 0.00 0.00 0.00 51 1004.8
20260831153003 59 138 0.0 0.0 0.00 0.00 0.00 51 1004.6
20260831151502 58 134 0.0 0.0 0.00 0.00 0.00 50 1004.9
20260831150003 58 138 0.0 0.0 0.00 0.00 0.00 51 1004.9
20260831144600 57 140 0.0 0.0 0.00 0.00 0.00 51 1004.8
20260831143113 57 152 0.0 0.0 0.00 0.00 0.00 52 1004.9
20260831141558 57 161 0.0 0.0 0.00 0.00 0.00 50 1004.7
20260831140057 56 160 0.0 0.0 0.00 0.00 0.00 47 1003.8
20260831134600 57 150 0.0 0.0 0.00 0.00 0.00 46 1003.8